Time,TemperatureF,DewpointF,PressureIn,WindDirection,WindDirectionDegrees,WindSpeedMPH,WindSpeedGustMPH,Humidity,HourlyPrecipIn,Conditions,Clouds,dailyrainin,SoftwareType,DateUTC
2013-03-27 00:00:00,36.9,32.5,29.88,NE,36,0.0,0.0,84,0.00,,,0.00,meteohub,2013-03-27 07:00:00,
2013-03-27 00:05:00,36.7,32.4,29.88,NE,36,0.0,0.0,84,0.00,,,0.00,meteohub,2013-03-27 07:05:00,
2013-03-27 00:11:00,36.3,32.2,29.88,NE,36,0.0,0.0,85,0.00,,,0.00,meteohub,2013-03-27 07:11:00,
2013-03-27 00:16:00,36.1,32.0,29.88,NE,36,0.0,0.0,85,0.00,,,0.00,meteohub,2013-03-27 07:16:00,
2013-03-27 00:22:00,36.1,32.0,29.88,NE,36,0.0,0.0,85,0.00,,,0.00,meteohub,2013-03-27 07:22:00,
2013-03-27 00:27:00,35.8,31.6,29.88,NE,36,0.0,0.0,85,0.00,,,0.00,meteohub,2013-03-27 07:27:00,
2013-03-27 00:32:00,35.4,31.6,29.88,NE,36,0.0,0.0,86,0.00,,,0.00,meteohub,2013-03-27 07:32:00,
2013-03-27 00:37:00,35.4,31.6,29.88,NE,36,0.0,0.0,86,0.00,,,0.00,meteohub,2013-03-27 07:37:00,
2013-03-27 00:42:00,35.6,31.8,29.88,NE,36,0.0,0.0,86,0.00,,,0.00,meteohub,2013-03-27 07:42:00,
2013-03-27 00:47:00,35.6,31.8,29.88,NE,36,0.0,0.0,86,0.00,,,0.00,meteohub,2013-03-27 07:47:00,
2013-03-27 00:52:00,35.6,31.8,29.88,NE,36,0.0,0.0,86,0.00,,,0.00,meteohub,2013-03-27 07:52:00,
2013-03-27 00:57:00,35.8,31.6,29.88,NE,36,0.0,0.0,85,0.00,,,0.00,meteohub,2013-03-27 07:57:00,
2013-03-27 01:02:00,35.8,31.6,29.88,NE,36,0.0,0.0,85,0.00,,,0.00,meteohub,2013-03-27 08:02:00,
2013-03-27 01:07:00,35.8,31.5,29.88,NE,36,0.0,0.0,84,0.00,,,0.00,meteohub,2013-03-27 08:07:00,
2013-03-27 01:12:00,35.4,31.1,29.88,NE,36,0.0,0.0,84,0.00,,,0.00,meteohub,2013-03-27 08:12:00,
2013-03-27 01:17:00,35.1,30.9,29.88,NE,36,0.0,0.0,85,0.00,,,0.00,meteohub,2013-03-27 08:17:00,
2013-03-27 01:23:00,34.9,31.1,29.88,NE,36,0.0,0.0,86,0.00,,,0.00,meteohub,2013-03-27 08:23:00,
2013-03-27 01:28:00,34.5,30.7,29.88,NE,36,0.0,0.0,86,0.00,,,0.00,meteohub,2013-03-27 08:28:00,
2013-03-27 01:33:00,34.3,30.6,29.88,NE,36,0.0,0.0,86,0.00,,,0.00,meteohub,2013-03-27 08:33:00,
2013-03-27 01:38:00,34.0,30.2,29.88,NE,36,0.0,0.0,86,0.00,,,0.00,meteohub,2013-03-27 08:38:00,
2013-03-27 01:44:00,34.0,30.6,29.88,NE,36,0.0,0.0,87,0.00,,,0.00,meteohub,2013-03-27 08:44:00,
2013-03-27 01:49:00,34.0,30.6,29.88,NE,36,0.0,0.0,87,0.00,,,0.00,meteohub,2013-03-27 08:49:00,
2013-03-27 01:54:00,33.6,30.2,29.88,NE,36,0.0,0.0,87,0.00,,,0.00,meteohub,2013-03-27 08:54:00,
2013-03-27 01:59:00,33.4,30.0,29.88,NE,36,0.0,0.0,87,0.00,,,0.00,meteohub,2013-03-27 08:59:00,
2013-03-27 02:05:00,33.3,29.8,29.88,NE,36,0.0,0.0,87,0.00,,,0.00,meteohub,2013-03-27 09:05:00,
2013-03-27 02:10:00,33.1,29.7,29.88,NE,36,0.0,0.0,87,0.00,,,0.00,meteohub,2013-03-27 09:10:00,
2013-03-27 02:15:00,33.1,29.7,29.88,NE,36,0.0,2.0,87,0.00,,,0.00,meteohub,2013-03-27 09:15:00,
2013-03-27 02:20:00,32.7,29.5,29.88,NE,36,0.0,2.0,88,0.00,,,0.00,meteohub,2013-03-27 09:20:00,
2013-03-27 02:26:00,32.9,29.7,29.88,NE,36,0.0,0.0,88,0.00,,,0.00,meteohub,2013-03-27 09:26:00,
2013-03-27 02:31:00,32.9,30.0,29.88,NE,36,0.0,0.0,89,0.00,,,0.00,meteohub,2013-03-27 09:31:00,
2013-03-27 02:36:00,33.1,30.2,29.87,NE,36,0.0,0.0,89,0.00,,,0.00,meteohub,2013-03-27 09:36:00,
2013-03-27 02:41:00,33.3,30.4,29.87,NE,36,0.0,0.0,89,0.00,,,0.00,meteohub,2013-03-27 09:41:00,
2013-03-27 02:47:00,33.4,30.6,29.87,NE,36,0.0,0.0,89,0.00,,,0.00,meteohub,2013-03-27 09:47:00,
2013-03-27 02:52:00,33.6,30.7,29.87,NE,36,0.0,0.0,89,0.00,,,0.00,meteohub,2013-03-27 09:52:00,
2013-03-27 02:57:00,33.8,30.9,29.87,NE,36,0.0,0.0,89,0.00,,,0.00,meteohub,2013-03-27 09:57:00,
2013-03-27 03:02:00,34.0,31.1,29.87,NE,36,0.0,0.0,89,0.00,,,0.00,meteohub,2013-03-27 10:02:00,
2013-03-27 03:07:00,34.0,30.7,29.86,NE,36,0.0,2.0,88,0.00,,,0.00,meteohub,2013-03-27 10:07:00,
2013-03-27 03:12:00,34.0,31.1,29.86,NE,36,0.0,2.0,89,0.00,,,0.00,meteohub,2013-03-27 10:12:00,
2013-03-27 03:17:00,34.0,30.7,29.86,NE,36,0.0,1.0,88,0.00,,,0.00,meteohub,2013-03-27 10:17:00,
2013-03-27 03:22:00,34.0,30.7,29.86,NE,36,0.0,1.0,88,0.00,,,0.00,meteohub,2013-03-27 10:22:00,
2013-03-27 03:27:00,34.0,30.7,29.86,NE,36,0.0,0.0,88,0.00,,,0.00,meteohub,2013-03-27 10:27:00,
2013-03-27 03:32:00,34.2,30.9,29.86,NE,36,0.0,0.0,88,0.00,,,0.00,meteohub,2013-03-27 10:32:00,
2013-03-27 03:37:00,34.0,30.7,29.86,NE,36,0.0,1.0,88,0.00,,,0.00,meteohub,2013-03-27 10:37:00,
2013-03-27 03:42:00,34.0,30.7,29.86,NE,36,0.0,1.0,88,0.00,,,0.00,meteohub,2013-03-27 10:42:00,
2013-03-27 03:48:00,33.8,30.6,29.86,NE,36,0.0,1.0,88,0.00,,,0.00,meteohub,2013-03-27 10:48:00,
2013-03-27 03:53:00,33.6,30.4,29.86,NE,36,0.0,1.0,88,0.00,,,0.00,meteohub,2013-03-27 10:53:00,
2013-03-27 03:58:00,33.6,30.4,29.86,NE,36,0.0,1.0,88,0.00,,,0.00,meteohub,2013-03-27 10:58:00,
2013-03-27 04:03:00,33.6,30.4,29.86,NE,36,0.0,1.0,88,0.00,,,0.00,meteohub,2013-03-27 11:03:00,
2013-03-27 04:08:00,33.4,30.2,29.86,NE,36,0.0,1.0,88,0.00,,,0.00,meteohub,2013-03-27 11:08:00,
2013-03-27 04:13:00,32.9,29.7,29.86,SSW,206,0.0,1.0,88,0.00,,,0.00,meteohub,2013-03-27 11:13:00,
2013-03-27 04:19:00,32.5,29.3,29.86,SSW,206,0.0,2.0,88,0.00,,,0.00,meteohub,2013-03-27 11:19:00,
2013-03-27 04:24:00,32.4,29.1,29.86,SSW,206,0.0,3.0,88,0.00,,,0.00,meteohub,2013-03-27 11:24:00,
2013-03-27 04:29:00,31.8,28.9,29.86,SSW,206,0.0,3.0,89,0.00,,,0.00,meteohub,2013-03-27 11:29:00,
2013-03-27 04:34:00,31.6,28.8,29.86,SSW,206,0.0,0.0,89,0.00,,,0.00,meteohub,2013-03-27 11:34:00,
2013-03-27 04:39:00,31.6,28.8,29.86,SSW,206,0.0,1.0,89,0.00,,,0.00,meteohub,2013-03-27 11:39:00,
2013-03-27 04:45:00,31.8,28.9,29.86,SSW,206,0.0,1.0,89,0.00,,,0.00,meteohub,2013-03-27 11:45:00,
2013-03-27 04:50:00,31.8,28.9,29.86,SSW,206,0.0,2.0,89,0.00,,,0.00,meteohub,2013-03-27 11:50:00,
2013-03-27 04:55:00,31.8,28.9,29.86,SSW,206,0.0,2.0,89,0.00,,,0.00,meteohub,2013-03-27 11:55:00,
2013-03-27 05:00:00,31.8,29.3,29.86,SSW,206,0.0,2.0,90,0.00,,,0.00,meteohub,2013-03-27 12:00:00,
2013-03-27 05:05:00,32.2,29.7,29.86,SSW,206,0.0,1.0,90,0.00,,,0.00,meteohub,2013-03-27 12:05:00,
2013-03-27 05:11:00,32.2,29.7,29.86,SSW,206,0.0,0.0,90,0.00,,,0.00,meteohub,2013-03-27 12:11:00,
2013-03-27 05:16:00,32.4,29.5,29.86,SSW,206,0.0,0.0,89,0.00,,,0.00,meteohub,2013-03-27 12:16:00,
2013-03-27 05:21:00,32.5,29.7,29.86,SSW,206,0.0,0.0,89,0.00,,,0.00,meteohub,2013-03-27 12:21:00,
2013-03-27 05:26:00,32.5,29.7,29.86,SSW,206,0.0,0.0,89,0.00,,,0.00,meteohub,2013-03-27 12:26:00,
2013-03-27 05:32:00,32.5,29.7,29.86,SSW,206,0.0,0.0,89,0.00,,,0.00,meteohub,2013-03-27 12:32:00,
2013-03-27 05:37:00,32.7,29.8,29.86,SSW,206,0.0,0.0,89,0.00,,,0.00,meteohub,2013-03-27 12:37:00,
2013-03-27 05:42:00,32.9,29.7,29.86,SSW,206,0.0,0.0,88,0.00,,,0.00,meteohub,2013-03-27 12:42:00,
2013-03-27 05:47:00,32.7,29.5,29.86,SSW,206,0.0,0.0,88,0.00,,,0.00,meteohub,2013-03-27 12:47:00,
2013-03-27 05:53:00,32.7,29.5,29.86,SSW,206,0.0,0.0,88,0.00,,,0.00,meteohub,2013-03-27 12:53:00,
2013-03-27 05:58:00,32.7,29.5,29.86,SSW,206,0.0,0.0,88,0.00,,,0.00,meteohub,2013-03-27 12:58:00,
2013-03-27 06:03:00,32.7,29.3,29.86,SSW,206,0.0,0.0,87,0.00,,,0.00,meteohub,2013-03-27 13:03:00,
2013-03-27 06:08:00,32.7,29.3,29.86,SSW,206,0.0,0.0,87,0.00,,,0.00,meteohub,2013-03-27 13:08:00,
2013-03-27 06:13:00,32.5,29.1,29.86,SSW,206,0.0,1.0,87,0.00,,,0.00,meteohub,2013-03-27 13:13:00,
2013-03-27 06:18:00,32.5,29.1,29.86,SSW,206,0.0,1.0,87,0.00,,,0.00,meteohub,2013-03-27 13:18:00,
2013-03-27 06:24:00,32.5,29.1,29.86,SSW,206,0.0,1.0,87,0.00,,,0.00,meteohub,2013-03-27 13:24:00,
2013-03-27 06:29:00,32.5,29.1,29.86,SSW,206,0.0,0.0,87,0.00,,,0.00,meteohub,2013-03-27 13:29:00,
2013-03-27 06:34:00,32.5,29.1,29.86,SSW,206,0.0,0.0,87,0.00,,,0.00,meteohub,2013-03-27 13:34:00,
2013-03-27 06:39:00,32.7,29.3,29.86,SSW,206,0.0,0.0,87,0.00,,,0.00,meteohub,2013-03-27 13:39:00,
2013-03-27 06:45:00,32.7,29.5,29.86,SSW,206,0.0,0.0,88,0.00,,,0.00,meteohub,2013-03-27 13:45:00,
2013-03-27 06:50:00,32.9,29.5,29.86,SSW,206,0.0,0.0,87,0.00,,,0.00,meteohub,2013-03-27 13:50:00,
2013-03-27 06:55:00,33.1,29.7,29.86,SSW,206,0.0,0.0,87,0.00,,,0.00,meteohub,2013-03-27 13:55:00,
2013-03-27 07:00:00,33.1,29.7,29.86,SSW,206,0.0,0.0,87,0.00,,,0.00,meteohub,2013-03-27 14:00:00,
2013-03-27 07:05:00,32.9,29.5,29.85,SSW,206,0.0,0.0,87,0.00,,,0.00,meteohub,2013-03-27 14:05:00,
2013-03-27 07:10:00,32.7,29.3,29.85,SSW,206,0.0,0.0,87,0.00,,,0.00,meteohub,2013-03-27 14:10:00,
2013-03-27 07:15:00,32.7,29.5,29.85,SSW,206,0.0,0.0,88,0.00,,,0.00,meteohub,2013-03-27 14:15:00,
2013-03-27 07:21:00,32.7,29.3,29.86,SSW,206,0.0,1.0,87,0.00,,,0.00,meteohub,2013-03-27 14:21:00,
2013-03-27 07:26:00,32.5,29.3,29.86,SSW,206,0.0,1.0,88,0.00,,,0.00,meteohub,2013-03-27 14:26:00,
2013-03-27 07:32:00,32.4,29.1,29.86,SSW,206,0.0,1.0,88,0.00,,,0.00,meteohub,2013-03-27 14:32:00,
2013-03-27 07:37:00,32.4,29.1,29.86,SSW,206,0.0,1.0,88,0.00,,,0.00,meteohub,2013-03-27 14:37:00,
2013-03-27 07:42:00,32.4,29.1,29.86,SSW,206,0.0,1.0,88,0.00,,,0.00,meteohub,2013-03-27 14:42:00,
2013-03-27 07:47:00,32.4,29.1,29.86,SSW,206,0.0,1.0,88,0.00,,,0.00,meteohub,2013-03-27 14:47:00,
2013-03-27 07:52:00,32.4,29.5,29.87,SSW,206,1.0,2.0,89,0.00,,,0.00,meteohub,2013-03-27 14:52:00,
2013-03-27 07:58:00,32.4,29.5,29.87,SSW,206,0.0,2.0,89,0.00,,,0.00,meteohub,2013-03-27 14:58:00,
2013-03-27 08:03:00,32.5,29.7,29.87,SSW,206,0.0,2.0,89,0.00,,,0.00,meteohub,2013-03-27 15:03:00,
2013-03-27 08:08:00,33.1,30.2,29.87,SSW,206,2.0,2.0,89,0.00,,,0.00,meteohub,2013-03-27 15:08:00,
2013-03-27 08:14:00,33.3,30.4,29.87,SSW,206,0.0,1.0,89,0.00,,,0.00,meteohub,2013-03-27 15:14:00,
2013-03-27 08:19:00,33.4,30.7,29.87,SSW,206,0.0,2.0,90,0.00,,,0.00,meteohub,2013-03-27 15:19:00,
2013-03-27 08:24:00,34.0,31.3,29.87,SSW,206,0.0,2.0,90,0.00,,,0.00,meteohub,2013-03-27 15:24:00,
2013-03-27 08:29:00,34.3,31.5,29.87,SSW,206,3.0,3.0,89,0.00,,,0.00,meteohub,2013-03-27 15:29:00,
2013-03-27 08:34:00,34.3,31.5,29.87,SSW,202,3.0,3.0,89,0.00,,,0.00,meteohub,2013-03-27 15:34:00,
2013-03-27 08:39:00,34.3,31.5,29.87,SSW,193,0.0,5.0,89,0.00,,,0.00,meteohub,2013-03-27 15:39:00,
2013-03-27 08:44:00,34.3,31.5,29.87,South,185,0.0,5.0,89,0.00,,,0.00,meteohub,2013-03-27 15:44:00,
2013-03-27 08:50:00,34.3,31.5,29.88,SSW,201,0.0,5.0,89,0.00,,,0.00,meteohub,2013-03-27 15:50:00,
2013-03-27 08:55:00,34.2,31.3,29.88,SSW,201,1.0,4.0,89,0.00,,,0.00,meteohub,2013-03-27 15:55:00,
2013-03-27 09:00:00,34.3,31.5,29.88,WSW,244,0.0,4.0,89,0.00,,,0.00,meteohub,2013-03-27 16:00:00,
2013-03-27 09:05:00,35.1,32.7,29.88,SW,235,0.0,4.0,91,0.01,,,0.01,meteohub,2013-03-27 16:05:00,
2013-03-27 09:11:00,35.8,33.1,29.88,SW,235,0.0,4.0,90,0.01,,,0.01,meteohub,2013-03-27 16:11:00,
2013-03-27 09:16:00,36.0,33.1,29.88,SW,235,1.0,2.0,89,0.01,,,0.01,meteohub,2013-03-27 16:16:00,
2013-03-27 09:21:00,36.1,33.3,29.88,South,175,1.0,3.0,89,0.01,,,0.01,meteohub,2013-03-27 16:21:00,
2013-03-27 09:26:00,36.0,32.7,29.88,South,177,0.0,3.0,88,0.01,,,0.01,meteohub,2013-03-27 16:26:00,
2013-03-27 09:32:00,35.4,32.2,29.88,South,184,0.0,3.0,88,0.01,,,0.01,meteohub,2013-03-27 16:32:00,
2013-03-27 09:37:00,35.8,32.9,29.88,South,184,0.0,3.0,89,0.01,,,0.01,meteohub,2013-03-27 16:37:00,
2013-03-27 09:42:00,36.1,33.4,29.88,South,184,0.0,3.0,90,0.01,,,0.01,meteohub,2013-03-27 16:42:00,
2013-03-27 09:47:00,36.9,34.2,29.88,South,186,0.0,3.0,90,0.01,,,0.01,meteohub,2013-03-27 16:47:00,
2013-03-27 09:52:00,37.4,34.5,29.87,South,186,0.0,3.0,89,0.01,,,0.01,meteohub,2013-03-27 16:52:00,
2013-03-27 09:57:00,37.9,35.2,29.87,South,187,0.0,3.0,90,0.01,,,0.01,meteohub,2013-03-27 16:57:00,
2013-03-27 10:03:00,38.1,34.9,29.87,WSW,238,0.0,3.0,88,0.00,,,0.01,meteohub,2013-03-27 17:03:00,
2013-03-27 10:08:00,38.7,35.8,29.87,WSW,238,1.0,4.0,89,0.00,,,0.01,meteohub,2013-03-27 17:08:00,
2013-03-27 10:13:00,38.8,35.6,29.87,WSW,238,0.0,4.0,88,0.00,,,0.01,meteohub,2013-03-27 17:13:00,
2013-03-27 10:18:00,39.4,36.1,29.87,WSW,238,0.0,2.0,88,0.00,,,0.01,meteohub,2013-03-27 17:18:00,
2013-03-27 10:23:00,39.9,36.7,29.87,WSW,246,1.0,3.0,88,0.00,,,0.01,meteohub,2013-03-27 17:23:00,
2013-03-27 10:29:00,41.4,37.8,29.87,WSW,248,0.0,3.0,87,0.00,,,0.01,meteohub,2013-03-27 17:29:00,
2013-03-27 10:34:00,42.3,38.3,29.87,WSW,248,0.0,4.0,86,0.00,,,0.01,meteohub,2013-03-27 17:34:00,
2013-03-27 10:39:00,43.3,39.2,29.87,SSW,205,0.0,4.0,85,0.00,,,0.01,meteohub,2013-03-27 17:39:00,
2013-03-27 10:44:00,45.0,39.7,29.87,SSW,194,0.0,4.0,82,0.00,,,0.01,meteohub,2013-03-27 17:44:00,
2013-03-27 10:50:00,45.7,39.2,29.87,South,180,0.0,4.0,78,0.00,,,0.01,meteohub,2013-03-27 17:50:00,
2013-03-27 10:55:00,46.0,39.2,29.87,South,186,0.0,5.0,77,0.00,,,0.01,meteohub,2013-03-27 17:55:00,
2013-03-27 11:00:00,46.6,39.4,29.87,WSW,258,1.0,5.0,76,0.00,,,0.01,meteohub,2013-03-27 18:00:00,
2013-03-27 11:05:00,47.5,39.9,29.86,WNW,290,0.0,4.0,75,0.00,,,0.01,meteohub,2013-03-27 18:05:00,
2013-03-27 11:11:00,48.4,40.1,29.86,WNW,284,0.0,4.0,73,0.00,,,0.01,meteohub,2013-03-27 18:11:00,
2013-03-27 11:16:00,48.7,39.7,29.86,South,170,2.0,6.0,71,0.00,,,0.01,meteohub,2013-03-27 18:16:00,
2013-03-27 11:21:00,49.3,40.3,29.86,SSW,204,0.0,6.0,71,0.00,,,0.01,meteohub,2013-03-27 18:21:00,
2013-03-27 11:26:00,50.0,39.9,29.86,WSW,256,1.0,7.0,68,0.00,,,0.01,meteohub,2013-03-27 18:26:00,
2013-03-27 11:32:00,50.0,39.0,29.86,South,178,1.0,7.0,66,0.00,,,0.01,meteohub,2013-03-27 18:32:00,
2013-03-27 11:37:00,50.0,40.3,29.86,SSW,204,2.0,7.0,69,0.00,,,0.01,meteohub,2013-03-27 18:37:00,
2013-03-27 11:42:00,50.4,38.7,29.86,WSW,240,0.0,6.0,64,0.00,,,0.01,meteohub,2013-03-27 18:42:00,
2013-03-27 11:47:00,50.7,39.7,29.86,West,265,0.0,12.0,66,0.00,,,0.01,meteohub,2013-03-27 18:47:00,
2013-03-27 11:52:00,51.3,39.0,29.86,WSW,243,1.0,12.0,63,0.00,,,0.01,meteohub,2013-03-27 18:52:00,
2013-03-27 11:57:00,51.1,38.1,29.86,South,191,0.0,12.0,61,0.00,,,0.01,meteohub,2013-03-27 18:57:00,
2013-03-27 12:02:00,50.4,38.3,29.86,WSW,254,0.0,10.0,63,0.00,,,0.01,meteohub,2013-03-27 19:02:00,
2013-03-27 12:07:00,49.6,37.9,29.86,WSW,252,1.0,7.0,64,0.00,,,0.01,meteohub,2013-03-27 19:07:00,
2013-03-27 12:13:00,49.3,36.9,29.86,West,261,2.0,7.0,62,0.00,,,0.01,meteohub,2013-03-27 19:13:00,
2013-03-27 12:18:00,49.5,37.8,29.86,SSW,200,2.0,7.0,64,0.00,,,0.01,meteohub,2013-03-27 19:18:00,
2013-03-27 12:23:00,50.5,38.8,29.85,South,180,0.0,7.0,64,0.00,,,0.01,meteohub,2013-03-27 19:23:00,
2013-03-27 12:28:00,50.7,37.8,29.85,SSE,168,0.0,7.0,61,0.00,,,0.01,meteohub,2013-03-27 19:28:00,
2013-03-27 12:33:00,50.5,38.8,29.85,West,279,2.0,6.0,64,0.00,,,0.01,meteohub,2013-03-27 19:33:00,
2013-03-27 12:39:00,49.6,39.6,29.86,SSW,198,0.0,6.0,68,0.00,,,0.01,meteohub,2013-03-27 19:39:00,
2013-03-27 12:44:00,50.0,41.0,29.86,WSW,250,1.0,8.0,71,0.00,,,0.01,meteohub,2013-03-27 19:44:00,
2013-03-27 12:49:00,50.5,41.5,29.85,South,181,0.0,8.0,71,0.00,,,0.01,meteohub,2013-03-27 19:49:00,
2013-03-27 12:54:00,51.3,38.7,29.85,SW,231,0.0,5.0,62,0.00,,,0.01,meteohub,2013-03-27 19:54:00,
2013-03-27 12:59:00,51.8,37.9,29.85,West,263,0.0,5.0,59,0.00,,,0.01,meteohub,2013-03-27 19:59:00,
2013-03-27 13:05:00,52.2,38.3,29.85,SSW,193,1.0,9.0,59,0.00,,,0.01,meteohub,2013-03-27 20:05:00,
2013-03-27 13:10:00,52.7,38.3,29.85,WSW,245,0.0,9.0,58,0.00,,,0.01,meteohub,2013-03-27 20:10:00,
2013-03-27 13:15:00,53.1,39.2,29.85,WSW,246,0.0,9.0,59,0.00,,,0.01,meteohub,2013-03-27 20:15:00,
2013-03-27 13:20:00,53.2,38.5,29.83,SSW,202,0.0,5.0,57,0.00,,,0.01,meteohub,2013-03-27 20:20:00,
2013-03-27 13:25:00,53.2,38.5,29.83,SSW,203,0.0,4.0,57,0.00,,,0.01,meteohub,2013-03-27 20:25:00,
2013-03-27 13:31:00,53.1,39.2,29.83,SSW,203,0.0,4.0,59,0.00,,,0.01,meteohub,2013-03-27 20:31:00,
2013-03-27 13:36:00,52.5,37.2,29.83,NE,49,0.0,4.0,56,0.00,,,0.01,meteohub,2013-03-27 20:36:00,
2013-03-27 13:41:00,52.3,37.0,29.83,NNW,329,1.0,4.0,56,0.00,,,0.01,meteohub,2013-03-27 20:41:00,
2013-03-27 13:47:00,52.0,37.6,29.83,North,5,0.0,4.0,58,0.00,,,0.01,meteohub,2013-03-27 20:47:00,
2013-03-27 13:52:00,52.3,37.0,29.83,SSE,153,0.0,5.0,56,0.00,,,0.01,meteohub,2013-03-27 20:52:00,
2013-03-27 13:57:00,52.5,37.2,29.83,SSE,157,0.0,5.0,56,0.00,,,0.01,meteohub,2013-03-27 20:57:00,
2013-03-27 14:02:00,52.5,37.2,29.83,West,265,0.0,5.0,56,0.00,,,0.01,meteohub,2013-03-27 21:02:00,
2013-03-27 14:07:00,52.3,39.4,29.83,SW,215,0.0,5.0,61,0.00,,,0.01,meteohub,2013-03-27 21:07:00,
2013-03-27 14:12:00,50.9,39.2,29.83,WSW,247,2.0,14.0,64,0.00,,,0.01,meteohub,2013-03-27 21:12:00,
2013-03-27 14:18:00,49.1,39.0,29.83,West,271,0.0,15.0,68,0.00,,,0.01,meteohub,2013-03-27 21:18:00,
2013-03-27 14:23:00,48.2,38.8,29.85,NW,308,0.0,15.0,70,0.00,,,0.01,meteohub,2013-03-27 21:23:00,
2013-03-27 14:28:00,47.8,38.1,29.85,NW,314,0.0,15.0,69,0.00,,,0.01,meteohub,2013-03-27 21:28:00,
2013-03-27 14:33:00,47.8,37.8,29.85,NW,308,0.0,9.0,68,0.00,,,0.01,meteohub,2013-03-27 21:33:00,
2013-03-27 14:38:00,48.0,38.3,29.83,WNW,295,0.0,9.0,69,0.00,,,0.01,meteohub,2013-03-27 21:38:00,
2013-03-27 14:43:00,48.9,37.8,29.83,West,260,2.0,6.0,65,0.00,,,0.01,meteohub,2013-03-27 21:43:00,
2013-03-27 14:49:00,49.8,37.4,29.83,NW,317,5.0,5.0,62,0.00,,,0.01,meteohub,2013-03-27 21:49:00,
2013-03-27 14:54:00,50.7,37.8,29.83,WSW,244,3.0,9.0,61,0.00,,,0.01,meteohub,2013-03-27 21:54:00,
2013-03-27 14:59:00,51.4,37.2,29.83,NW,318,0.0,9.0,58,0.00,,,0.01,meteohub,2013-03-27 21:59:00,
2013-03-27 15:05:00,52.2,36.9,29.83,NW,325,0.0,9.0,56,0.00,,,0.01,meteohub,2013-03-27 22:05:00,
2013-03-27 15:10:00,52.9,37.2,29.83,South,189,0.0,8.0,55,0.00,,,0.01,meteohub,2013-03-27 22:10:00,
2013-03-27 15:15:00,53.4,36.7,29.83,East,85,1.0,6.0,53,0.00,,,0.01,meteohub,2013-03-27 22:15:00,
2013-03-27 15:20:00,53.4,36.3,29.83,SE,134,0.0,8.0,52,0.00,,,0.01,meteohub,2013-03-27 22:20:00,
2013-03-27 15:25:00,54.3,37.9,29.83,SSW,197,1.0,8.0,54,0.00,,,0.01,meteohub,2013-03-27 22:25:00,
2013-03-27 15:31:00,54.9,36.5,29.83,ESE,103,0.0,3.0,50,0.00,,,0.01,meteohub,2013-03-27 22:31:00,
2013-03-27 15:36:00,55.2,36.9,29.82,SSE,159,0.0,4.0,50,0.00,,,0.01,meteohub,2013-03-27 22:36:00,
2013-03-27 15:42:00,54.9,37.0,29.82,SW,236,0.0,5.0,51,0.00,,,0.01,meteohub,2013-03-27 22:42:00,
2013-03-27 15:47:00,54.5,36.3,29.82,WSW,242,5.0,5.0,50,0.00,,,0.01,meteohub,2013-03-27 22:47:00,
2013-03-27 15:52:00,54.7,36.9,29.81,South,191,2.0,8.0,51,0.00,,,0.01,meteohub,2013-03-27 22:52:00,
2013-03-27 15:57:00,55.2,36.9,29.81,WNW,284,3.0,8.0,50,0.00,,,0.01,meteohub,2013-03-27 22:57:00,
2013-03-27 16:02:00,55.8,35.8,29.81,SW,221,2.0,8.0,47,0.00,,,0.01,meteohub,2013-03-27 23:02:00,
2013-03-27 16:08:00,55.8,36.3,29.81,West,279,0.0,7.0,48,0.00,,,0.01,meteohub,2013-03-27 23:08:00,
2013-03-27 16:13:00,55.9,36.5,29.81,WSW,249,2.0,7.0,48,0.00,,,0.01,meteohub,2013-03-27 23:13:00,
2013-03-27 16:18:00,55.8,36.3,29.81,West,267,0.0,7.0,48,0.00,,,0.01,meteohub,2013-03-27 23:18:00,
2013-03-27 16:23:00,55.6,36.1,29.82,WSW,254,1.0,5.0,48,0.00,,,0.01,meteohub,2013-03-27 23:23:00,
2013-03-27 16:29:00,55.0,36.1,29.82,NW,312,1.0,7.0,49,0.00,,,0.01,meteohub,2013-03-27 23:29:00,
2013-03-27 16:34:00,54.7,36.3,29.82,SW,235,2.0,7.0,50,0.00,,,0.01,meteohub,2013-03-27 23:34:00,
2013-03-27 16:39:00,54.7,35.4,29.82,SSW,209,0.0,7.0,48,0.00,,,0.01,meteohub,2013-03-27 23:39:00,
2013-03-27 16:45:00,54.5,36.3,29.82,SW,223,1.0,5.0,50,0.00,,,0.01,meteohub,2013-03-27 23:45:00,
2013-03-27 16:50:00,54.7,36.9,29.82,SW,236,0.0,4.0,51,0.00,,,0.01,meteohub,2013-03-27 23:50:00,
2013-03-27 16:55:00,54.3,36.1,29.82,WSW,251,0.0,7.0,50,0.00,,,0.01,meteohub,2013-03-27 23:55:00,
2013-03-27 17:00:00,54.1,36.3,29.82,WSW,252,0.0,6.0,51,0.00,,,0.01,meteohub,2013-03-28 00:00:00,
2013-03-27 17:05:00,53.8,35.1,29.82,West,270,0.0,4.0,49,0.00,,,0.01,meteohub,2013-03-28 00:05:00,
2013-03-27 17:11:00,53.2,35.6,29.82,West,266,1.0,2.0,51,0.00,,,0.01,meteohub,2013-03-28 00:11:00,
2013-03-27 17:16:00,52.9,35.8,29.82,West,277,0.0,4.0,52,0.00,,,0.01,meteohub,2013-03-28 00:16:00,
2013-03-27 17:21:00,52.2,37.4,29.82,WNW,298,2.0,5.0,57,0.00,,,0.01,meteohub,2013-03-28 00:21:00,
2013-03-27 17:27:00,51.3,39.9,29.82,WSW,244,0.0,5.0,65,0.00,,,0.01,meteohub,2013-03-28 00:27:00,
2013-03-27 17:32:00,50.7,40.5,29.82,WSW,244,0.0,5.0,68,0.00,,,0.01,meteohub,2013-03-28 00:32:00,
2013-03-27 17:37:00,50.4,39.0,29.83,WSW,244,0.0,5.0,65,0.00,,,0.01,meteohub,2013-03-28 00:37:00,
2013-03-27 17:42:00,50.0,39.6,29.83,WSW,244,0.0,1.0,67,0.00,,,0.01,meteohub,2013-03-28 00:42:00,
2013-03-27 17:47:00,49.8,39.4,29.83,WSW,244,2.0,2.0,67,0.00,,,0.01,meteohub,2013-03-28 00:47:00,
2013-03-27 17:52:00,49.3,39.2,29.84,WSW,256,0.0,5.0,68,0.00,,,0.01,meteohub,2013-03-28 00:52:00,
2013-03-27 17:57:00,48.4,40.8,29.84,SW,231,1.0,5.0,75,0.00,,,0.01,meteohub,2013-03-28 00:57:00,
2013-03-27 18:02:00,47.5,40.3,29.84,SW,231,0.0,5.0,76,0.03,,,0.04,meteohub,2013-03-28 01:02:00,
2013-03-27 18:07:00,46.6,40.8,29.85,SW,231,0.0,2.0,80,0.03,,,0.04,meteohub,2013-03-28 01:07:00,
2013-03-27 18:13:00,45.9,40.3,29.85,SW,231,0.0,2.0,81,0.03,,,0.04,meteohub,2013-03-28 01:13:00,
2013-03-27 18:18:00,45.3,40.1,29.85,WSW,244,0.0,2.0,82,0.03,,,0.04,meteohub,2013-03-28 01:18:00,
2013-03-27 18:23:00,45.3,40.5,29.85,WSW,245,0.0,6.0,83,0.03,,,0.04,meteohub,2013-03-28 01:23:00,
2013-03-27 18:28:00,45.3,40.8,29.85,WSW,245,0.0,6.0,84,0.03,,,0.04,meteohub,2013-03-28 01:28:00,
2013-03-27 18:34:00,45.3,40.5,29.85,WSW,245,0.0,2.0,83,0.03,,,0.04,meteohub,2013-03-28 01:34:00,
2013-03-27 18:39:00,45.3,40.5,29.85,WSW,247,0.0,2.0,83,0.03,,,0.04,meteohub,2013-03-28 01:39:00,
2013-03-27 18:44:00,45.3,40.8,29.85,NW,317,0.0,2.0,84,0.03,,,0.04,meteohub,2013-03-28 01:44:00,
2013-03-27 18:49:00,45.3,40.8,29.85,NW,325,0.0,2.0,84,0.03,,,0.04,meteohub,2013-03-28 01:49:00,
2013-03-27 18:54:00,45.3,40.8,29.85,NNW,327,0.0,2.0,84,0.03,,,0.04,meteohub,2013-03-28 01:54:00,
2013-03-27 19:00:00,45.3,40.8,29.85,NNW,327,0.0,2.0,84,0.02,,,0.04,meteohub,2013-03-28 02:00:00,
2013-03-27 19:05:00,45.3,40.5,29.85,NNW,327,0.0,2.0,83,0.00,,,0.04,meteohub,2013-03-28 02:05:00,
2013-03-27 19:10:00,45.1,40.6,29.85,NNW,327,0.0,1.0,84,0.00,,,0.04,meteohub,2013-03-28 02:10:00,
2013-03-27 19:15:00,45.0,40.5,29.85,NNW,327,0.0,1.0,84,0.00,,,0.04,meteohub,2013-03-28 02:15:00,
2013-03-27 19:21:00,45.0,40.5,29.85,NNW,327,0.0,1.0,84,0.00,,,0.04,meteohub,2013-03-28 02:21:00,
2013-03-27 19:26:00,44.8,40.3,29.85,NNW,327,0.0,0.0,84,0.00,,,0.04,meteohub,2013-03-28 02:26:00,
2013-03-27 19:32:00,44.4,39.9,29.85,NNW,327,0.0,0.0,84,0.00,,,0.04,meteohub,2013-03-28 02:32:00,
2013-03-27 19:37:00,44.2,39.7,29.86,NNW,327,0.0,0.0,84,0.00,,,0.04,meteohub,2013-03-28 02:37:00,
2013-03-27 19:42:00,44.1,39.6,29.86,NNW,327,0.0,0.0,84,0.00,,,0.04,meteohub,2013-03-28 02:42:00,
2013-03-27 19:47:00,43.9,39.4,29.86,NNW,327,0.0,0.0,84,0.00,,,0.04,meteohub,2013-03-28 02:47:00,
2013-03-27 19:52:00,43.5,39.0,29.86,NNW,327,0.0,0.0,84,0.00,,,0.04,meteohub,2013-03-28 02:52:00,
2013-03-27 19:57:00,43.2,38.3,29.86,NNW,327,0.0,0.0,83,0.00,,,0.04,meteohub,2013-03-28 02:57:00,
2013-03-27 20:03:00,42.8,37.9,29.86,NNW,327,1.0,0.0,83,0.00,,,0.04,meteohub,2013-03-28 03:03:00,
2013-03-27 20:08:00,42.3,37.8,29.86,NNW,327,0.0,2.0,84,0.00,,,0.04,meteohub,2013-03-28 03:08:00,
2013-03-27 20:13:00,41.7,37.6,29.86,NNW,327,0.0,2.0,85,0.00,,,0.04,meteohub,2013-03-28 03:13:00,
2013-03-27 20:18:00,41.5,37.4,29.86,NNW,327,0.0,2.0,85,0.00,,,0.04,meteohub,2013-03-28 03:18:00,
2013-03-27 20:23:00,41.4,37.2,29.86,NNW,327,0.0,0.0,85,0.00,,,0.04,meteohub,2013-03-28 03:23:00,
2013-03-27 20:29:00,41.2,37.0,29.86,NNW,327,0.0,0.0,85,0.00,,,0.04,meteohub,2013-03-28 03:29:00,
2013-03-27 20:34:00,41.2,37.4,29.88,NNW,327,0.0,0.0,86,0.00,,,0.04,meteohub,2013-03-28 03:34:00,
2013-03-27 20:39:00,41.2,37.4,29.88,NNW,327,0.0,0.0,86,0.00,,,0.04,meteohub,2013-03-28 03:39:00,
2013-03-27 20:44:00,41.4,37.6,29.88,NNW,327,0.0,0.0,86,0.00,,,0.04,meteohub,2013-03-28 03:44:00,
2013-03-27 20:50:00,41.4,37.6,29.88,NNW,327,0.0,0.0,86,0.00,,,0.04,meteohub,2013-03-28 03:50:00,
2013-03-27 20:55:00,41.2,37.4,29.88,NNW,327,0.0,0.0,86,0.00,,,0.04,meteohub,2013-03-28 03:55:00,
2013-03-27 21:00:00,40.8,37.0,29.88,NNW,327,0.0,0.0,86,0.00,,,0.04,meteohub,2013-03-28 04:00:00,
2013-03-27 21:01:00,40.8,37.0,29.88,NNW,327,0.0,0.0,86,0.00,,,0.04,meteohub,2013-03-28 04:01:00,
2013-03-27 21:02:00,40.8,37.0,29.88,NNW,327,0.0,0.0,86,0.00,,,0.04,meteohub,2013-03-28 04:02:00,
2013-03-27 21:07:00,40.6,36.9,29.88,NNW,327,0.0,0.0,86,0.00,,,0.04,meteohub,2013-03-28 04:07:00,
2013-03-27 21:12:00,40.5,36.7,29.88,NNW,327,0.0,0.0,86,0.00,,,0.04,meteohub,2013-03-28 04:12:00,
2013-03-27 21:17:00,40.5,36.9,29.88,NNW,327,0.0,0.0,87,0.00,,,0.04,meteohub,2013-03-28 04:17:00,
2013-03-27 21:22:00,40.3,36.7,29.89,NNW,327,0.0,0.0,87,0.00,,,0.04,meteohub,2013-03-28 04:22:00,
2013-03-27 21:27:00,40.1,36.5,29.89,NNW,327,0.0,0.0,87,0.00,,,0.04,meteohub,2013-03-28 04:27:00,
2013-03-27 21:32:00,39.7,36.1,29.89,NNW,327,0.0,0.0,87,0.00,,,0.04,meteohub,2013-03-28 04:32:00,
2013-03-27 21:38:00,39.9,36.7,29.90,NNW,327,0.0,0.0,88,0.00,,,0.04,meteohub,2013-03-28 04:38:00,
2013-03-27 21:43:00,40.1,36.9,29.90,NNW,327,0.0,0.0,88,0.00,,,0.04,meteohub,2013-03-28 04:43:00,
2013-03-27 21:48:00,40.3,37.0,29.90,NNW,327,0.0,0.0,88,0.00,,,0.04,meteohub,2013-03-28 04:48:00,
2013-03-27 21:54:00,40.3,36.7,29.90,NNW,327,0.0,0.0,87,0.00,,,0.04,meteohub,2013-03-28 04:54:00,
2013-03-27 21:59:00,40.5,36.9,29.90,NNW,327,0.0,0.0,87,0.00,,,0.04,meteohub,2013-03-28 04:59:00,
2013-03-27 22:04:00,40.5,36.9,29.91,NNW,327,0.0,0.0,87,0.00,,,0.04,meteohub,2013-03-28 05:04:00,
2013-03-27 22:10:00,40.5,36.9,29.91,NNW,327,0.0,0.0,87,0.00,,,0.04,meteohub,2013-03-28 05:10:00,
2013-03-27 22:15:00,40.5,36.9,29.91,NNW,327,0.0,0.0,87,0.00,,,0.04,meteohub,2013-03-28 05:15:00,
2013-03-27 22:20:00,40.5,36.9,29.91,NNW,327,0.0,0.0,87,0.00,,,0.04,meteohub,2013-03-28 05:20:00,
2013-03-27 22:25:00,40.5,37.2,29.91,NNW,327,0.0,0.0,88,0.00,,,0.04,meteohub,2013-03-28 05:25:00,
2013-03-27 22:30:00,40.6,37.0,29.91,NNW,327,0.0,0.0,87,0.00,,,0.04,meteohub,2013-03-28 05:30:00,
2013-03-27 22:35:00,40.5,36.7,29.90,NNW,327,0.0,0.0,86,0.00,,,0.04,meteohub,2013-03-28 05:35:00,
2013-03-27 22:41:00,39.6,35.8,29.90,NNW,327,0.0,1.0,86,0.00,,,0.04,meteohub,2013-03-28 05:41:00,
2013-03-27 22:46:00,39.0,35.4,29.90,NNW,327,0.0,1.0,87,0.00,,,0.04,meteohub,2013-03-28 05:46:00,
2013-03-27 22:51:00,38.7,35.1,29.91,NNW,327,0.0,1.0,87,0.00,,,0.04,meteohub,2013-03-28 05:51:00,
2013-03-27 22:56:00,38.5,35.2,29.91,NNW,327,0.0,0.0,88,0.00,,,0.04,meteohub,2013-03-28 05:56:00,
2013-03-27 23:02:00,38.3,34.7,29.91,NNW,327,0.0,0.0,87,0.00,,,0.04,meteohub,2013-03-28 06:02:00,
2013-03-27 23:07:00,38.1,34.5,29.90,NNW,327,0.0,0.0,87,0.00,,,0.04,meteohub,2013-03-28 06:07:00,
2013-03-27 23:12:00,37.8,34.2,29.90,NNW,327,0.0,0.0,87,0.00,,,0.04,meteohub,2013-03-28 06:12:00,
2013-03-27 23:19:00,37.2,35.1,29.90,NNW,327,0.0,0.0,92,0.00,,,0.04,meteohub,2013-03-28 06:19:00,
2013-03-27 23:24:00,37.0,33.8,29.91,NNW,327,0.0,0.0,88,0.00,,,0.04,meteohub,2013-03-28 06:24:00,
2013-03-27 23:29:00,37.0,33.6,29.91,NNW,327,0.0,0.0,87,0.00,,,0.04,meteohub,2013-03-28 06:29:00,
2013-03-27 23:35:00,37.0,33.6,29.91,NNW,327,0.0,0.0,87,0.00,,,0.04,meteohub,2013-03-28 06:35:00,
2013-03-27 23:40:00,37.0,33.6,29.91,NNW,327,0.0,0.0,87,0.00,,,0.04,meteohub,2013-03-28 06:40:00,
2013-03-27 23:45:00,37.0,33.8,29.91,NNW,327,0.0,1.0,88,0.00,,,0.04,meteohub,2013-03-28 06:45:00,
2013-03-27 23:50:00,36.9,33.6,29.91,NNW,327,0.0,1.0,88,0.00,,,0.04,meteohub,2013-03-28 06:50:00,
2013-03-27 23:56:00,36.9,33.6,29.91,NNW,327,0.0,1.0,88,0.00,,,0.04,meteohub,2013-03-28 06:56:00,